CAPE
904 1387 1867 1325 1432 1196 1191 1382 1477 1549 1410 1366 1299 1228 1234 1212 1427 1503 1128 917 779 792 967 648 239 126 89 358 297 114 226 481 702 644 767 555 498 561 879 801 968 773 777
951 1356 1860 1688 1601 1382 1318 1542 1390 1520 1434 1330 1086 1177 1266 1262 1167 1390 1197 1052 649 579 601 345 173 114 133 556 607 458 417 336 337 403 437 432 695 491 604 802 958 597 462
1101 1032 1231 1989 1986 1971 1568 1582 1519 1589 1468 1275 960 729 931 951 880 991 1084 903 630 724 569 390 162 297 353 461 377 182 285 266 213 224 242 369 351 829 841 809 1004 920 448
1332 1064 1037 1911 1773 1600 1569 1637 1541 1552 1695 1703 1435 1030 728 1105 1383 1239 1011 755 676 850 880 564 248 305 257 309 279 216 30 20 10 0 141 304 280 373 707 760 727 641 298
1274 1186 1106 1957 1905 1608 1589 1449 1469 1581 1506 1553 1533 1393 1008 801 996 1259 1096 835 1144 816 794 841 550 310 267 252 355 150 25 0 0 0 23 169 402 451 445 689 678 419 193
919 976 1486 1626 1301 1340 1193 1539 1498 1434 1415 1439 1543 1580 1215 941 883 914 1041 1116 921 978 1014 799 675 377 322 262 281 47 12 0 0 0 6 58 226 304 557 518 348 302 242
0 45 514 1024 1110 1054 1090 1243 1470 1559 1455 1507 1480 1398 1262 1233 1387 1285 1225 1158 1208 1152 908 981 818 476 346 190 168 60 0 0 0 0 22 248 124 268 310 530 421 364 223
0 0 0 0 14 32 381 853 1117 1312 1466 1601 1683 1478 1448 1375 1300 1305 1230 1227 1150 1057 1000 913 843 678 446 261 155 115 0 0 0 0 24 101 235 219 249 331 322 415 329
0 0 0 0 0 0 4 124 380 742 1177 1425 1361 1243 1368 1266 1103 1149 1260 1253 1124 1155 1104 1113 1100 856 609 404 506 327 0 0 0 0 8 27 33 38 388 352 262 321 400
0 0 0 0 0 0 0 0 0 0 223 827 815 619 717 858 921 935 743 844 970 1142 1155 1101 1106 1007 632 678 752 340 0 0 0 0 11 22 61 49 350 387 331 332 295
0 0 0 0 0 0 0 0 0 0 0 224 462 500 637 843 783 700 533 514 671 858 996 1167 1224 954 633 505 598 312 0 0 0 0 0 0 59 66 318 390 255 379 330
0 0 0 0 0 0 0 0 0 0 0 0 52 236 428 583 402 544 359 217 207 373 569 893 1036 856 365 281 316 226 17 0 0 0 0 0 35 122 189 293 323 296 90
0 0 0 0 0 0 0 0 0 0 0 0 0 0 1 212 260 339 430 420 161 71 484 623 867 753 604 438 219 16 0 0 0 0 0 0 12 81 105 122 116 201 116
0 0 0 0 0 0 0 0 0 0 0 0 0 0 0 0 53 12 7 16 63 106 130 267 314 589 562 317 27 0 0 0 0 0 0 0 0 80 226 173 141 248 171
0 0 0 0 0 0 0 0 0 0 0 0 0 0 0 0 0 0 0 0 0 0 0 0 90 78 120 117 32 0 0 0 0 0 0 0 0 1 209 202 202 241 174
0 0 0 0 0 0 0 0 0 0 0 0 0 0 0 0 0 0 0 1 0 0 0 0 0 47 41 7 0 0 0 0 0 0 0 0 0 0 92 112 230 156 107
0 0 0 0 0 0 0 0 0 0 0 0 0 0 0 0 0 0 0 0 0 1 2 0 0 0 3 3 1 0 0 0 0 3 0 0 0 0 37 253 292 142 86
0 0 0 0 0 0 0 0 0 0 0 0 0 0 0 0 0 0 0 0 0 0 1 2 0 1 2 6 6 1 1 0 0 0 0 0 0 4 10 156 416 289 129
0 0 0 0 0 0 0 0 0 0 0 0 0 0 0 0 0 0 0 0 0 1 0 0 0 2 1 3 5 8 2 3 1 0 0 0 0 21 89 89 82 113 134
0 0 0 0 0 0 0 0 0 0 0 0 0 0 0 0 0 0 0 0 0 1 0 0 0 2 1 1 6 8 3 0 5 1 0 0 0 1 62 75 81 88 77
0 0 0 0 0 0 0 0 0 0 0 0 0 0 0 0 0 0 0 0 0 1 0 1 0 0 3 5 2 0 0 1 4 5 7 5 4 7 28 96 197 208 100
0 0 0 0 0 0 0 0 0 0 0 0 0 0 0 0 0 0 0 0 0 0 0 2 1 2 3 6 7 5 10 4 4 4 3 4 10 5 1 30 100 110 12
0 0 0 0 0 0 0 0 0 0 0 0 0 0 0 0 0 0 0 0 0 0 13 4 14 15 28 12 23 18 18 9 1 1 2 0 0 2 2 1 5 5 0
0 0 0 0 0 0 0 0 0 0 0 0 0 0 0 0 0 0 0 0 0 0 10 18 30 35 52 36 24 21 0 0 23 0 1 1 0 1 2 2 0 0 0
0 0 0 0 0 0 0 0 0 0 0 0 0 0 0 0 0 0 0 0 0 0 4 14 21 61 52 51 52 16 15 0 0 0 10 0 0 0 1 3 1 1 0
0 0 0 0 0 0 0 0 0 0 0 0 0 0 0 0 0 0 0 0 0 0 0 0 11 35 74 59 50 38 2 3 0 0 0 0 1 0 1 0 1 0 0
CIN
-28 -0 -0 -0 -0 -0 -0 -0 -0 -0 -0 -0 -0 -0 -2 -4 -0 -0 -0 -0 -0 -0 -0 -0 -0 -24 -41 -0 -1 -76 -42 -7 -0 -8 -10 -26 -32 -20 -0 -0 -0 -4 -7
-53 -0 -0 -0 -0 -0 -0 -0 -0 -0 -0 -0 -0 -0 -0 -0 -0 -0 -0 -0 -0 -0 -0 -1 -3 -25 -16 -0 -0 -0 -9 -21 -34 -34 -44 -52 -13 -36 -18 -3 -0 -14 -30
-40 -17 -1 -0 -0 -0 -0 -0 -0 -0 -0 -0 -0 -3 -0 -0 -0 -0 -0 -0 -5 -0 -0 -0 -9 -0 -0 -0 -0 -23 -15 -31 -64 -71 -84 -47 -61 -8 -3 -3 -0 -1 -25
-11 -14 -7 -0 -0 -0 -1 -0 -0 -0 -0 -0 -0 -0 -3 -0 -0 -0 -1 -2 -3 -2 -0 -0 -4 -0 -0 -0 -0 -8 -142 -208 -140 -0 -95 -36 -54 -52 -19 -12 -9 -12 -51
-10 -14 -5 -0 -0 -1 -1 -3 -2 -0 -0 -0 -0 -0 -0 -4 -0 -0 -0 -2 -1 -6 -4 -0 -0 -5 -0 -0 -0 -17 -134 -0 -0 -0 -129 -64 -18 -15 -22 -7 -11 -34 -83
-17 -10 -2 -2 -2 -2 -2 -3 -3 -5 -5 -2 -0 -0 -0 -2 -2 -2 -2 -3 -4 -3 -2 -3 -0 -4 -1 -0 -0 -50 -58 -0 -0 -0 -102 -105 -37 -34 -3 -7 -30 -49 -63
-0 -211 -45 -7 -4 -4 -3 -4 -2 -1 -3 -2 -4 -2 -1 -0 -0 -1 -2 -4 -3 -2 -2 -1 -0 -2 -3 -5 -1 -30 -0 -0 -0 -0 -59 -19 -49 -29 -17 -9 -22 -41 -74
-0 -0 -0 -0 -161 -117 -58 -21 -9 -3 -1 -2 -1 -2 -2 -2 -4 -4 -3 -2 -3 -3 -3 -1 -1 -1 -1 -4 -2 -11 -0 -0 -0 -0 -54 -56 -16 -18 -20 -16 -19 -17 -38
-0 -0 -0 -0 -0 -0 -64 -187 -95 -23 -3 -4 -5 -3 -4 -4 -5 -4 -6 -5 -6 -2 -3 -2 -0 -2 -3 -2 -0 -2 -0 -0 -0 -0 -13 -7 -50 -107 -0 -4 -13 -10 -6
-0 -0 -0 -0 -0 -0 -0 -0 -0 -0 -132 -29 -22 -48 -13 -17 -14 -10 -19 -15 -7 -4 -2 -2 -1 -1 -3 -1 -0 -3 -0 -0 -0 -0 -16 -6 -77 -84 -1 -0 -5 -10 -21
-0 -0 -0 -0 -0 -0 -0 -0 -0 -0 -0 -146 -75 -61 -47 -21 -21 -23 -36 -38 -25 -10 -5 -2 -1 -3 -8 -12 -4 -6 -0 -0 -0 -0 -0 -0 -87 -54 -3 -0 -13 -0 -6
-0 -0 -0 -0 -0 -0 -0 -0 -0 -0 -0 -0 -68 -114 -65 -36 -62 -36 -59 -85 -84 -52 -28 -8 -3 -6 -12 -1 -4 -9 -82 -0 -0 -0 -0 -0 -28 -12 -3 -9 -17 -12 -46
-0 -0 -0 -0 -0 -0 -0 -0 -0 -0 -0 -0 -0 -0 -7 -104 -80 -54 -38 -39 -86 -133 -21 -16 -6 -1 -0 -4 -11 -99 -5 -0 -0 -0 -0 -0 -38 -46 -12 -20 -67 -24 -22
-0 -0 -0 -0 -0 -0 -0 -0 -0 -0 -0 -0 -0 -0 -0 -0 -195 -248 -247 -222 -128 -83 -61 -33 -26 -3 -2 -7 -34 -0 -0 -0 -0 -0 -0 -0 -0 -49 -4 -0 -35 -18 -23
-0 -0 -0 -0 -0 -0 -0 -0 -0 -0 -0 -0 -0 -0 -0 -0 -0 -0 -0 -0 -0 -0 -0 -0 -50 -56 -28 -20 -33 -0 -0 -0 -0 -0 -0 -0 -0 -7 -8 -7 -1 -15 -21
-0 -0 -0 -0 -0 -0 -0 -0 -0 -0 -0 -0 -0 -0 -0 -0 -0 -0 -0 -0 -0 -0 -0 -0 -0 -36 -10 -20 -0 -0 -0 -0 -0 -0 -0 -0 -0 -0 -24 -4 -3 -35 -13
-0 -0 -0 -0 -0 -0 -0 -0 -0 -0 -0 -0 -0 -0 -0 -0 -0 -0 -0 -0 -0 -0 -0 -0 -0 -0 -0 -0 -0 -0 -0 -0 -0 -0 -0 -0 -0 -0 -75 -9 -1 -0 -0
-0 -0 -0 -0 -0 -0 -0 -0 -0 -0 -0 -0 -0 -0 -0 -0 -0 -0 -0 -0 -0 -0 -0 -0 -0 -0 -0 -0 -0 -0 -0 -0 -0 -0 -0 -0 -13 -103 -45 -28 -2 -0 -0
-0 -0 -0 -0 -0 -0 -0 -0 -0 -0 -0 -0 -0 -0 -0 -0 -0 -0 -0 -0 -0 -0 -0 -0 -0 -0 -0 -0 -0 -0 -0 -0 -0 -0 -0 -0 -0 -46 -43 -34 -11 -9 -12
-0 -0 -0 -0 -0 -0 -0 -0 -0 -0 -0 -0 -0 -0 -0 -0 -0 -0 -0 -0 -0 -0 -0 -0 -0 -0 -0 -0 -0 -3 -0 -0 -0 -0 -0 -0 -0 -0 -9 -34 -38 -26 -12
-0 -0 -0 -0 -0 -0 -0 -0 -0 -0 -0 -0 -0 -0 -0 -0 -0 -0 -0 -0 -0 -0 -0 -0 -0 -0 -0 -0 -4 -0 -0 -0 -0 -0 -0 -0 -0 -0 -25 -16 -12 -15 -10
-0 -0 -0 -0 -0 -0 -0 -0 -0 -0 -0 -0 -0 -0 -0 -0 -0 -0 -0 -0 -0 -0 -0 -0 -0 -1 -0 -0 -0 -8 -0 -0 -0 -0 -0 -0 -0 -0 -4 -23 -11 -16 -47
-0 -0 -0 -0 -0 -0 -0 -0 -0 -0 -0 -0 -0 -0 -0 -0 -0 -0 -0 -0 -0 -0 -0 -0 -3 -2 -2 -14 -0 -0 -3 -0 -0 -0 -0 -0 -0 -0 -1 -0 -11 -30 -26
-0 -0 -0 -0 -0 -0 -0 -0 -0 -0 -0 -0 -0 -0 -0 -0 -0 -0 -0 -0 -0 -2 -8 -0 -2 -5 -0 -1 -15 -16 -0 -1 -4 -0 -0 -0 -0 -0 -0 -0 -0 -0 -0
-0 -0 -0 -0 -0 -0 -0 -0 -0 -0 -0 -0 -0 -0 -0 -0 -0 -0 -0 -0 -0 -0 -26 -10 -2 -0 -0 -0 -0 -18 -24 -0 -0 -0 -24 -0 -0 -0 -0 -0 -0 -0 -0
-0 -0 -0 -0 -0 -0 -0 -0 -0 -0 -0 -0 -0 -0 -0 -0 -0 -0 -0 -0 -0 -0 -0 -0 -8 -0 -0 -1 -4 -2 -21 -24 -1 -0 -0 -0 -21 -0 -0 -0 -0 -0 -0
Wind_Speed
6 10 12 12 13 11 10 10 12 13 12 13 12 12 11 11 12 11 10 9 8 8 11 10 10 10 10 10 10 10 10 10 10 10 8 8 9 10 12 12 11 15 17
10 11 14 12 12 13 11 10 11 11 10 11 11 11 11 10 9 9 8 8 9 8 10 10 10 10 11 11 12 11 11 9 8 8 7 7 6 9 10 10 8 15 16
12 12 13 11 11 11 11 11 10 10 11 10 10 10 9 9 8 7 6 4 6 8 10 10 10 10 10 11 12 11 10 9 8 7 5 5 4 10 11 11 12 15 16
10 9 10 11 11 11 11 11 10 8 10 9 10 10 9 8 7 7 4 3 7 8 9 11 10 9 9 9 11 10 9 7 7 6 4 3 4 5 13 13 14 15 14
10 10 8 10 10 11 11 11 10 10 9 9 9 9 8 8 7 6 5 4 7 8 8 10 11 10 9 9 8 8 7 5 7 4 5 4 1 4 8 13 14 14 11
7 9 9 9 7 6 7 8 9 10 10 10 10 9 8 7 6 6 5 4 5 6 8 10 11 10 10 9 8 7 7 6 5 5 4 5 3 4 9 10 13 12 12
9 9 9 12 8 4 2 5 6 6 9 9 9 9 8 7 6 4 4 4 4 5 7 9 10 10 10 9 8 7 7 6 5 4 3 3 4 5 6 10 13 13 12
9 7 8 13 14 12 10 9 5 6 7 7 6 6 6 6 5 4 4 4 5 6 7 8 10 11 11 10 9 7 7 5 4 4 3 1 4 3 5 8 9 10 10
8 7 8 6 8 12 12 13 11 3 8 9 7 4 5 4 3 5 4 4 5 6 6 7 8 9 10 10 9 8 7 6 4 3 3 1 4 1 4 5 8 9 10
8 8 8 7 7 5 5 9 11 9 10 6 5 5 2 2 1 1 0 2 4 5 5 7 8 9 10 9 9 8 7 6 4 3 3 3 6 3 4 7 9 8 8
7 8 7 6 6 6 6 8 10 13 11 9 7 7 5 2 2 1 3 3 3 5 5 7 9 9 9 8 9 9 8 3 4 3 2 5 8 6 7 8 8 12 11
4 6 6 5 6 6 6 7 8 8 8 7 7 6 4 3 3 2 2 3 4 5 6 7 9 10 9 6 5 7 4 5 4 4 3 5 8 8 9 10 10 11 11
3 4 6 5 5 7 6 5 4 4 4 5 8 7 5 4 3 3 2 2 2 3 2 4 3 5 9 6 5 4 4 4 4 4 5 7 8 10 8 11 11 11 12
5 5 5 6 6 7 5 6 5 5 5 5 6 7 4 3 3 3 2 3 3 3 3 3 2 4 6 7 7 6 6 5 4 4 5 7 8 12 11 11 14 13 13
7 5 6 6 7 6 8 5 6 6 6 5 5 6 5 3 3 3 2 2 2 2 1 2 1 2 4 6 7 6 6 6 5 4 3 6 8 10 12 11 16 15 13
6 6 5 7 6 6 6 6 5 5 5 4 4 5 5 3 3 3 3 2 2 1 1 1 1 1 1 3 5 5 4 2 3 3 3 5 9 9 11 10 15 16 14
6 6 5 6 5 6 6 5 4 4 4 4 4 5 5 4 4 4 3 2 3 2 3 1 1 0 1 2 3 4 6 7 5 8 7 5 6 10 12 12 17 18 17
7 6 5 5 5 6 5 4 3 4 4 4 4 3 4 4 4 4 3 3 3 2 3 2 2 1 2 3 3 4 5 6 8 8 6 4 5 4 5 10 14 19 19
6 6 5 5 5 4 4 3 4 4 4 4 4 4 5 5 4 3 3 3 3 3 4 3 3 3 3 4 4 4 4 6 7 5 7 7 7 7 5 9 16 16 17
6 5 5 4 4 3 1 2 1 2 4 3 3 3 5 4 5 4 4 4 3 3 4 3 5 4 4 4 4 3 5 5 5 5 7 6 7 7 9 8 8 9 13
5 6 5 4 4 4 3 3 3 3 5 3 5 7 7 5 5 4 3 4 3 4 5 5 4 5 5 3 1 2 3 4 6 5 5 5 8 7 6 10 8 7 8
5 5 6 5 5 4 3 2 1 3 2 3 4 6 6 6 6 5 5 4 4 4 6 5 5 2 4 5 4 1 3 4 5 6 5 4 7 5 4 6 8 11 9
5 5 5 4 5 5 5 3 3 2 2 2 5 6 6 8 7 7 7 6 5 4 5 7 6 7 5 6 9 5 2 6 1 1 3 3 2 3 3 4 5 8 10
5 4 5 5 5 4 5 5 5 3 4 3 6 5 7 8 8 5 5 6 8 5 6 7 6 7 7 5 3 7 2 1 3 2 2 2 1 4 3 2 2 5 7
5 4 4 3 5 5 5 5 4 5 4 6 6 9 9 8 8 8 8 7 7 6 7 8 9 8 6 7 6 2 5 3 1 2 2 1 2 3 3 3 4 5 1
4 3 3 5 4 5 5 6 7 7 8 8 9 8 8 8 7 9 7 7 8 7 8 8 10 10 9 7 6 7 5 5 5 4 2 3 3 2 2 2 2 1 2
Wind_Direction
172 159 152 153 157 144 133 119 112 106 114 110 113 113 118 117 125 133 132 132 137 133 113 105 102 99 96 93 104 106 101 88 75 69 82 97 107 108 107 111 117 104 98
158 161 154 156 149 145 140 128 119 118 117 119 120 118 118 119 123 123 140 149 146 137 122 113 112 106 98 95 95 95 96 92 87 75 70 85 98 123 121 126 122 112 109
155 157 154 159 148 150 148 140 133 129 128 129 126 125 124 128 135 139 137 152 161 150 134 125 121 110 108 107 101 93 93 90 83 80 75 101 125 141 129 115 114 114 109
152 149 149 148 152 147 155 146 143 138 129 128 129 131 131 129 118 137 135 151 147 156 138 127 120 120 119 121 120 97 89 88 79 71 99 90 97 143 145 140 132 119 117
149 146 152 141 146 150 147 146 147 148 148 143 145 140 140 139 137 129 117 112 149 155 149 137 137 136 135 137 132 110 87 90 82 79 73 76 129 124 144 139 134 118 126
130 142 134 130 149 151 154 156 158 158 157 154 153 157 148 149 145 140 128 112 128 146 163 156 151 150 146 146 143 117 87 102 110 80 65 68 73 184 151 137 123 138 135
64 64 74 75 73 92 159 166 180 171 167 163 164 164 162 161 158 156 151 155 155 160 161 168 166 161 158 157 155 131 99 111 124 99 71 53 68 102 170 156 150 151 142
74 63 55 56 56 50 41 27 291 185 180 173 174 178 178 176 177 180 183 197 190 192 188 183 177 173 168 168 164 146 121 113 154 122 118 58 341 87 113 121 149 156 149
63 56 61 43 48 34 39 37 24 330 189 189 181 178 175 188 196 183 183 190 206 214 216 204 191 185 178 177 168 151 142 127 148 164 178 205 298 150 132 143 148 153 157
64 66 59 56 56 72 52 50 50 57 53 48 103 45 211 181 191 280 272 257 237 236 238 232 217 193 187 181 171 160 159 145 166 170 213 213 265 237 164 158 159 156 149
61 48 48 55 64 61 56 46 42 48 56 47 45 47 68 61 59 360 359 350 321 297 282 248 224 201 192 189 183 175 167 188 192 205 226 232 252 252 179 165 157 147 140
52 45 51 54 54 66 65 55 53 50 52 51 48 45 52 47 40 22 17 353 334 328 311 295 235 220 202 207 201 188 203 193 207 210 220 243 250 256 196 183 165 159 160
73 54 47 62 61 68 65 59 56 54 54 50 46 38 29 35 25 30 13 18 357 7 316 300 294 243 221 204 208 196 197 201 216 219 222 237 249 248 221 201 185 172 180
85 67 59 67 78 72 78 66 62 57 51 47 38 38 35 30 20 22 21 13 20 20 2 342 301 270 224 214 215 218 208 210 216 222 226 243 260 243 244 206 201 184 180
96 91 75 87 91 89 75 65 53 50 46 36 34 30 24 25 11 349 353 5 20 348 352 341 301 263 243 222 216 214 222 221 227 234 233 230 256 253 247 235 208 184 184
115 99 96 84 82 79 68 58 54 45 41 38 30 22 16 10 357 346 338 322 313 327 350 339 335 9 287 209 191 201 211 230 292 273 254 238 227 241 239 241 207 198 195
118 116 97 90 80 70 64 53 43 31 26 26 15 11 13 15 354 340 322 293 290 323 312 259 242 138 148 184 201 204 207 209 202 256 247 220 243 223 217 227 201 199 191
128 119 90 74 62 58 51 40 32 24 17 11 6 356 355 352 357 341 325 305 295 275 287 292 271 303 267 242 223 218 231 224 224 234 251 252 247 251 225 239 204 203 193
135 127 103 78 62 50 39 24 19 16 18 357 346 348 345 338 336 320 306 300 289 252 245 246 238 237 235 250 263 247 230 233 231 243 253 267 264 254 234 226 206 199 186
120 103 103 91 67 48 37 11 24 25 2 347 346 330 322 320 321 320 314 305 293 258 245 232 233 231 241 243 244 243 248 247 248 246 259 266 265 271 260 226 192 196 208
108 110 101 90 45 35 13 2 6 357 335 342 337 332 322 314 310 301 296 307 303 273 269 247 236 230 219 200 134 270 263 250 241 243 249 257 254 249 254 254 202 189 196
119 107 91 69 43 40 33 13 343 321 312 303 323 327 332 336 329 316 309 306 298 276 257 244 220 215 226 196 197 119 261 216 220 223 229 231 248 232 233 241 222 193 188
110 97 78 47 32 34 21 359 350 333 308 332 348 335 335 325 318 308 294 292 283 266 256 254 227 224 228 199 217 223 190 236 214 127 227 240 223 235 205 219 232 209 196
117 93 65 40 27 28 18 24 17 348 331 319 316 309 314 326 326 325 311 300 287 272 259 261 238 217 230 228 210 237 246 190 221 237 199 231 278 255 221 197 177 253 209
120 86 59 40 37 23 19 21 3 340 315 317 317 322 322 324 323 319 319 313 288 275 266 260 260 245 223 233 219 178 201 188 169 216 280 201 245 227 246 229 200 172 63
118 98 61 31 27 20 14 6 359 338 329 325 325 322 319 314 314 314 308 302 294 283 270 264 258 255 251 233 237 234 210 185 192 204 203 209 232 212 223 268 289 181 151